Location: Baiershofen
(48.4583°N, 10.5516°E)
Time: 00:24:07
(UTC+00:00)

Daily predictions for brighter satellites

Satellite Brightness Start Highest point End
(mag) Time Altitude Azimuth Time Altitude Azimuth Time Altitude Azimuth
CENTAUR R/B 4.4 02:05:13 26° N 02:05:13 26° N 02:10:56 10° NE
ACS3 Solar Sail 3.5 02:00:25 10° NNE 02:03:45 28° NE 02:03:45 28° NE
USA 234 4.3 02:07:27 10° ESE 02:11:31 40° E 02:11:31 40° E
Cosmos 2360 Rocket 4.1 02:17:23 24° NE 02:17:23 24° NE 02:19:41 10° NE
Cosmos 2322 Rocket 4.2 02:17:43 24° NE 02:17:43 24° NE 02:19:53 10° NE
SL-16 R/B 4.3 02:24:11 20° NNE 02:24:11 20° NNE 02:25:52 10° NNE
Cosmos 1943 Rocket 4.4 02:24:44 18° NNE 02:26:01 19° NE 02:29:53 10° E
ADEOS Rocket 3.6 02:33:18 10° NNE 02:38:45 61° NE 02:38:45 61° NE
CZ-2C R/B 4.2 02:37:39 10° NE 02:42:01 29° E 02:42:20 29° ESE
Cosmos 2219 Rocket 2.9 02:55:06 50° ENE 02:55:06 50° ENE 02:59:26 10° NNE
BREEZE-M DEB (TANK) 4.4 02:53:28 72° WSW 02:54:18 78° SSW 03:19:29 10° SE
USA 59 Rocket 2.8 03:05:02 11° ENE 03:05:02 11° ENE 03:05:10 10° ENE
COSMOS 2428 4.5 02:59:23 12° SSE 03:03:47 29° ESE 03:08:35 10° NE
Cosmos 1727 Rocket 4.4 03:10:31 10° S 03:16:33 59° E 03:22:40 10° NNE
USA 267 3.1 03:13:03 10° NE 03:19:37 87° NNW 03:20:18 74° WSW
Cosmos 2228 Rocket 3.9 03:26:01 46° NE 03:26:01 46° NE 03:29:25 10° NNE
Cosmos 1980 Rocket 4.5 03:27:56 11° NNW 03:27:56 11° NNW 03:28:32 10° N
Cosmos 1269 Rocket 4.3 03:29:01 42° N 03:30:42 65° ENE 03:35:57 10° SSE
H-2A R/B 3.9 03:26:45 10° N 03:28:05 18° N 03:28:05 18° N
USA 238 DEB 4.4 03:33:05 36° NNW 03:33:05 36° NNW 03:39:27 10° NE
USA 238 4.4 03:33:10 36° NNW 03:33:10 36° NNW 03:39:34 10° NE
Cosmos 2278 Rocket 3.2 03:29:48 19° N 03:33:36 44° NE 03:38:59 10° SE
Cosmos 2173 Rocket 4.1 03:31:33 10° N 03:37:39 70° ENE 03:43:42 10° SSE
Cosmos 2333 Rocket 3.4 03:39:31 29° NNW 03:39:31 29° NNW 03:43:11 10° NNE
Cosmos 2237 Rocket 4.4 03:35:43 10° SSE 03:40:07 24° ESE 03:44:33 10° NE
ADEOS II 4.3 03:39:20 10° N 03:39:55 12° NNW 03:39:55 12° NNW
COSMOS 2455 3.4 03:45:06 40° NW 03:45:06 40° NW 03:50:25 10° NNE
Lacrosse 5 rocket 3.1 03:46:58 19° NNE 03:46:58 19° NNE 03:48:18 10° NE
Cosmos 1153 Rocket 4.3 03:40:03 10° NNW 03:46:09 66° W 03:52:19 10° S
Cosmos 2298 Rocket 4.2 03:46:57 54° NNW 03:46:57 54° NNW 03:51:35 10° NNE
Cosmos 1939 Rocket 3.4 03:43:31 10° NNE 03:47:19 55° E 03:48:49 32° SSE
ACS3 Solar Sail 2.3 03:43:21 10° N 03:47:53 40° NW 03:47:53 40° NW
BlueWalker 3 2.6 03:53:51 44° SE 03:53:51 44° SE 03:56:28 10° SE
USA 234 3.4 03:50:41 10° SSE 03:57:04 53° SW 03:58:52 42° W
CENTAUR R/B 4.4 03:52:18 16° NNW 03:57:24 32° NNE 04:05:10 10° E
Cosmos 2123 Rocket 4.4 03:51:56 10° S 03:58:04 65° E 04:04:12 10° NNE
USA 276 4.5 04:00:15 16° SE 04:00:15 16° SE 04:00:57 10° SE
Cosmos 2360 Rocket 3.1 03:59:09 31° NW 03:59:09 31° NW 04:03:30 10° NNE
Cosmos 2322 Rocket 3.3 03:59:32 28° NNW 03:59:32 28° NNW 04:03:39 10° NNE
Helios 1A Rocket 3.8 03:57:01 10° SE 04:00:11 38° ENE 04:02:41 15° N
Meteor 2-5 Rocket 4.4 03:54:55 10° S 04:00:41 58° E 04:06:26 10° NNE
Gbstr 26 Del rocket 3.7 03:59:16 41° SSW 04:00:52 64° SSE 04:06:42 10° ENE
SL-16 R/B 3.8 04:06:02 19° NNW 04:06:02 19° NNW 04:09:12 10° N
Cosmos 44 Rocket 3.3 04:05:02 47° NW 04:06:27 72° SW 04:11:35 10° SSE
Cosmos 2016 Rocket 4.2 04:02:32 10° N 04:08:57 73° E 04:15:17 10° SSE
Cosmos 1943 Rocket 2.2 04:06:17 17° NNW 04:10:40 80° ENE 04:16:10 10° SSE
Meteor 2-14 Rocket 4.4 04:05:52 10° SSW 04:11:54 62° WNW 04:17:57 10° N
Okean 1-7 3.7 04:13:10 36° NNW 04:13:10 36° NNW 04:16:03 10° N
H-2A R/B 4.0 04:08:36 10° N 04:11:15 38° NNW 04:11:15 38° NNW
ARGOS 3.4 04:09:40 10° N 04:14:48 44° WNW 04:16:17 36° WSW
NOSS 2-1 (C) 2.6 04:14:58 87° W 04:15:00 87° NW 04:18:03 10° NE
PAYLOAD A 4.1 04:10:23 10° N 04:15:41 56° WNW 04:20:29 12° SW
Meteor 2-21 Rocket 4.5 04:09:42 10° S 04:15:50 82° E 04:21:57 10° N
Cosmos 1908 Rocket 3.4 04:12:07 10° NNW 04:16:35 82° W 04:20:59 10° S
Cosmos 1140 Rocket 3.4 04:15:56 27° NW 04:18:39 60° WSW 04:23:39 10° S
NOSS 2-1 (D) 2.6 04:19:05 73° NW 04:19:05 73° NW 04:22:04 10° NE
CZ-2C R/B 2.8 04:15:29 10° N 04:20:09 42° WNW 04:21:32 34° WSW
Timation 2 Rocket 4.0 04:14:48 14° NNW 04:20:38 72° WSW 04:26:59 10° SSE
Cosmos 1300 Rocket 3.9 04:17:01 10° N 04:21:21 65° ENE 04:25:37 10° SSE
ADEOS Rocket 4.1 04:19:36 10° N 04:24:53 27° WNW 04:25:40 27° WNW
Cosmos 2061 Rocket 4.3 04:22:46 10° N 04:28:59 69° ENE 04:35:08 10° SSE
NOSS 3-1 (C) 3.0 04:27:24 27° WSW 04:30:00 66° NW 04:35:49 10° NE
Iridium 4 Rocket 2.9 04:27:25 10° N 04:31:50 85° W 04:35:59 10° S
Cosmos 2100 Rocket 4.1 04:26:22 10° NNW 04:32:12 47° W 04:38:02 10° SSW
SJ 16-02 3.1 04:28:54 10° N 04:32:43 30° ENE 04:36:30 10° ESE
Orbus 7S? 4.4 04:29:32 10° SW 04:35:43 50° SE 04:38:54 10° ENE
Cosmos 2219 Rocket 3.1 04:36:50 25° WNW 04:38:12 28° NW 04:43:04 10° NNE
IRS-1D 3.3 04:35:20 10° NNE 04:40:20 78° WNW 04:45:15 10° SSW
NOSS 0 Rocket 3.9 04:38:03 10° SSW 04:44:12 84° WNW 04:50:24 10° NNE
COSMOS 2428 2.8 04:42:11 10° SW 04:47:43 53° NW 04:53:18 10° NNE
Cosmos 1869 4.2 04:44:23 10° N 04:47:45 42° ENE 04:51:05 10° SSE
USA 59 Rocket 0.0 04:50:47 29° WNW 04:51:24 32° NW 04:54:07 10° NNE
Cosmos 371 Rocket 4.5 04:46:51 10° NNW 04:51:29 43° ENE 04:56:05 10° SE
Cosmos 1459 Rocket 4.5 04:47:33 10° NNW 04:53:19 37° W 04:59:03 10° SSW
Cosmos 2322 4.1 04:50:01 11° WSW 04:55:17 42° NW 05:00:40 10° NNE
Cosmos 1954 Rocket 4.5 04:51:34 10° NNW 04:56:46 63° ENE 05:01:52 10° SE
FengYun 1-2 T 4.4 04:51:26 10° N 04:56:46 49° WNW 05:02:06 10° SW
COSMO-SKYMED 1 2.4 04:54:19 10° S 04:58:23 59° W 05:02:29 10° NNW
SKYMED 2 3.9 04:55:37 10° S 04:59:45 43° W 05:03:55 10° NNW
Cosmos 407 Rocket 3.6 04:55:37 10° NNW 05:00:33 50° WSW 05:05:27 10° S
USA 267 3.7 04:56:07 10° ENE 05:02:19 48° NNW 05:07:39 14° W
Cosmos 1484 Rocket 2.8 04:59:23 10° NNE 05:02:57 70° ESE 05:06:29 10° S
Cosmos 2228 Rocket 4.5 05:03:28 17° WNW 05:03:35 17° WNW 05:06:32 10° NNW
Cosmos 1725 Rocket 4.3 04:57:54 10° NNW 05:03:52 45° W 05:09:47 10° SSW
Cosmos 1980 3.6 05:01:45 10° SSW 05:07:23 75° WNW 05:13:05 10° NNE
Cosmos 1656 Rocket 4.1 05:08:09 10° NNW 05:13:49 67° ENE 05:19:27 10° SE
NOSS 3-1 (A) 3.0 05:09:22 10° SW 05:14:08 71° NW 05:19:59 10° NE
Cosmos 2233 Rocket 4.1 05:09:02 10° NNW 05:15:09 53° W 05:21:12 10° SSW
Cosmos 1400 Rocket 4.4 05:11:44 10° N 05:15:11 33° ENE 05:18:34 10° SE
Cosmos 2278 Rocket 2.8 05:12:29 10° NW 05:17:33 35° WSW 05:22:36 10° S
Cosmos 1703 Rocket 4.4 05:14:10 10° SW 05:17:53 27° WNW 05:21:39 10° NNW
Cosmos 2251 Rocket 3.6 05:14:09 10° NNW 05:19:27 63° WSW 05:24:44 10° S
Cosmos 304 Rocket 4.0 05:15:04 10° NNW 05:19:51 76° ENE 05:24:37 10° SSE
Cosmos 1939 Rocket 4.4 05:18:34 10° NNW 05:20:52 16° WNW 05:23:11 10° W
NOSS 2-1 (E) 3.9 05:18:52 13° W 05:21:16 25° NW 05:23:54 10° NNE
CZ-3 R/B 4.1 05:19:00 10° SW 05:22:27 13° SSW 05:25:00 10° SSE
Lacrosse 5 rocket 2.7 05:20:39 10° NW 05:23:09 19° N 05:25:38 10° NE
Cosmos 2237 Rocket 2.2 05:18:05 10° SW 05:23:43 62° WNW 05:29:21 10° NNE
Cosmos 2333 Rocket 4.2 05:22:43 10° NW 05:24:10 11° NNW 05:25:39 10° N
IGS 5A 3.5 05:21:54 10° NNE 05:25:56 82° ESE 05:29:57 10° S
Cosmos 2292 Rocket 4.5 05:24:27 10° SW 05:28:25 34° WNW 05:33:23 10° N
BlueWalker 3 3.8 05:27:54 10° W 05:29:54 14° SW 05:31:53 10° SSW
Cosmos 2151 Rocket 4.2 05:27:38 10° N 05:32:07 61° ENE 05:36:32 10° SSE
Helios 1A Rocket 4.1 05:31:00 10° SW 05:33:05 15° W 05:35:10 10° NW
Cosmos 2242 Rocket 3.5 05:29:50 10° SSW 05:34:11 73° W 05:38:36 10° N
ATLAS 3B R/B 4.4 05:27:34 10° S 05:34:31 43° ESE 05:41:47 10° NE
Cosmos 2369 Rocket 2.9 05:30:04 10° NNW 05:35:39 55° ENE 05:41:13 10° SE
Cosmos 1624 Rocket 4.0 05:34:45 10° SSW 05:39:56 89° ESE 05:45:09 10° NNE
Cosmos 968 Rocket 4.2 05:36:57 10° NNW 05:42:08 58° ENE 05:47:17 10° SE
Cosmos 2360 Rocket 4.2 05:44:00 10° NNW 05:44:22 10° NNW 05:44:43 10° NNW
Cosmos 1420 Rocket 4.2 05:40:38 10° SW 05:45:46 52° WNW 05:50:58 10° NNE
CENTAUR R/B 3.6 05:41:26 10° NW 05:49:30 69° NE 05:58:49 10° SE
